Weather History for St. Augustine, FL

Change the Weather History Date:

Friday, January 22, 2010

  Actual Average Record
Temperature  
Mean Temperature 62 °F -  
Max Temperature 73 °F 62 °F 80 °F (1993)
Min Temperature 51 °F 44 °F 17 °F (1985)
Degree Days  
Heating Degree Days 3    
Growing Degree Days 12 (Base 50)    
Moisture  
Dew Point 61 °F    
Average Humidity 91    
Maximum Humidity 100    
Minimum Humidity 55    
Precipitation  
Precipitation 0.31 in - - ()
Sea Level Pressure  
Sea Level Pressure 29.82 in    
Wind  
Wind Speed 7 mph (WNW)    
Max Wind Speed 16 mph    
Max Gust Speed 28 mph    
Visibility 7 miles    
Events Fog , Rain , Thunderstorm    
Averages and records for this station are not official NWS values.
T = Trace of Precipitation, MM = Missing Value Source: NWS Daily Summary

Daily Weather History Graph

Daily Weather History Graph

Search for Another Location

Airport:

Trip Planner

Search our weather history database for the weather conditions in past years. The results will help you decide how hot, cold, wet, or windy it might be!

Date:

Astronomy

Jan. 22, 2010 Rise Set
Actual Time 7:20 AM EST 5:54 PM EST
Civil Twilight 6:54 AM EST 6:19 PM EST
Nautical Twilight 6:25 AM EST 6:48 PM EST
Astronomical Twilight 5:57 AM EST 7:17 PM EST
Moon 11:03 AM EST (1/22) No Moon Set
Length of Visible Light 11h 24m
Length of Day
10h 33m
Waxing Crescent, 43% of the Moon is Illuminated
Jan 22
Waxing Crescent
Jan 23
First Quarter
Jan 30
Full
Feb 5
Last Quarter
Feb 13
New

Hourly Weather History & Observations

Time (EST) Temp. Dew Point Humidity Pressure Visibility Wind Dir Wind Speed Gust Speed Precip Events Conditions
12:22 AM 66.2 °F 66.2 °F 100% 29.80 in 10.0 mi SSW 5.8 mph - N/A   Overcast
12:58 AM 66.2 °F 66.2 °F 100% 29.79 in 10.0 mi SSW 5.8 mph - N/A   Overcast
1:01 AM 66.9 °F 66.0 °F 97% 29.79 in 10.0 mi SW 4.6 mph - N/A   Overcast
1:09 AM 66.2 °F 66.2 °F 100% 29.78 in 10.0 mi SSW 6.9 mph - N/A   Overcast
1:34 AM 66.2 °F 66.2 °F 100% 29.77 in 10.0 mi SSW 6.9 mph - N/A   Overcast
1:46 AM 66.2 °F 66.2 °F 100% 29.78 in 10.0 mi SSW 6.9 mph - N/A   Overcast
1:58 AM 66.2 °F 66.2 °F 100% 29.77 in 10.0 mi SSW 6.9 mph - 0.00 in Rain , Thunderstorm Light Rain
2:01 AM 66.9 °F 66.0 °F 97% 29.78 in 10.0 mi SSW 9.2 mph - 0.00 in Rain , Thunderstorm Light Rain
2:22 AM 68.0 °F 66.2 °F 94% 29.76 in 10.0 mi SSW 9.2 mph - 0.09 in Rain , Thunderstorm Light Thunderstorms and Rain
2:36 AM 68.0 °F 66.2 °F 94% 29.76 in 10.0 mi SW 9.2 mph - 0.09 in   Overcast
2:49 AM 68.0 °F 66.2 °F 94% 29.76 in 10.0 mi SW 9.2 mph - 0.09 in   Overcast
2:58 AM 69.1 °F 66.9 °F 93% 29.76 in 10.0 mi SSW 8.1 mph - 0.09 in Rain Light Rain
3:14 AM 68.0 °F 64.4 °F 88% 29.76 in 6.0 mi SW 10.4 mph 27.6 mph 0.22 in Rain , Thunderstorm Light Thunderstorms and Rain
3:23 AM 68.0 °F 66.2 °F 94% 29.77 in 10.0 mi WSW 9.2 mph - 0.22 in Rain , Thunderstorm Light Thunderstorms and Rain
3:30 AM 69.8 °F 66.2 °F 88% 29.77 in 10.0 mi WSW 6.9 mph - 0.22 in Rain , Thunderstorm Light Rain
3:32 AM 69.8 °F 66.2 °F 88% 29.77 in 10.0 mi WSW 5.8 mph - 0.22 in Rain Light Rain
3:58 AM 68.0 °F 66.9 °F 96% 29.77 in 8.0 mi WSW 4.6 mph - 0.22 in   Overcast
4:18 AM 69.8 °F 66.2 °F 88% 29.77 in 7.0 mi SW 5.8 mph - N/A   Overcast
4:50 AM 69.8 °F 66.2 °F 88% 29.77 in 8.0 mi SW 5.8 mph - N/A   Overcast
4:58 AM 69.8 °F 66.2 °F 88% 29.77 in 9.0 mi WSW 4.6 mph - N/A   Overcast
5:18 AM 68.0 °F 66.2 °F 94% 29.77 in 9.0 mi SW 5.8 mph - N/A   Overcast
5:44 AM 68.0 °F 66.2 °F 94% 29.77 in 10.0 mi SW 4.6 mph - N/A   Overcast
5:50 AM 68.0 °F 66.2 °F 94% 29.77 in 10.0 mi SW 4.6 mph - N/A   Overcast
5:58 AM 68.0 °F 66.9 °F 96% 29.77 in 10.0 mi SW 4.6 mph - N/A   Overcast
6:18 AM 68.0 °F 66.2 °F 94% 29.77 in 10.0 mi SW 5.8 mph - N/A   Overcast
6:45 AM 68.0 °F 66.2 °F 94% 29.76 in 10.0 mi SW 4.6 mph - N/A   Overcast
6:51 AM 68.0 °F 66.2 °F 94% 29.76 in 6.0 mi SSW 5.8 mph - N/A   Overcast
6:58 AM 68.0 °F 66.9 °F 96% 29.76 in 6.0 mi SW 4.6 mph - N/A   Overcast
7:02 AM 68.0 °F 66.2 °F 94% 29.76 in 10.0 mi SW 4.6 mph - N/A   Overcast
7:06 AM 68.0 °F 66.2 °F 94% 29.76 in 6.0 mi SW 6.9 mph - N/A   Overcast
7:58 AM 68.0 °F 66.9 °F 96% 29.77 in 6.0 mi WSW 5.8 mph - N/A   Mostly Cloudy
8:02 AM 68.0 °F 66.2 °F 94% 29.77 in 10.0 mi WSW 6.9 mph - N/A   Overcast
8:08 AM 68.0 °F 66.2 °F 94% 29.77 in 6.0 mi WSW 5.8 mph - N/A   Overcast
8:58 AM 69.1 °F 66.9 °F 93% 29.81 in 6.0 mi NW 8.1 mph - N/A   Overcast
9:02 AM 69.8 °F 64.4 °F 83% 29.81 in 6.0 mi WNW 6.9 mph - N/A   Overcast
9:58 AM 68.0 °F 63.0 °F 84% 29.84 in 6.0 mi WNW 8.1 mph - N/A   Haze
10:50 AM 69.8 °F 62.6 °F 78% 29.84 in 10.0 mi NW 10.4 mph - N/A   Mostly Cloudy
10:58 AM 69.1 °F 61.0 °F 75% 29.84 in 10.0 mi WNW 6.9 mph - N/A   Mostly Cloudy
11:03 AM 69.8 °F 60.8 °F 73% 29.84 in 10.0 mi WNW 9.2 mph - N/A   Scattered Clouds
11:14 AM 71.6 °F 62.6 °F 73% 29.83 in 10.0 mi NW 9.2 mph - N/A   Mostly Cloudy
11:24 AM 69.8 °F 62.6 °F 78% 29.83 in 10.0 mi NW 9.2 mph - N/A   Scattered Clouds
11:37 AM 71.6 °F 60.8 °F 69% 29.83 in 10.0 mi NNW 10.4 mph - N/A   Mostly Cloudy
11:53 AM 71.6 °F 59.0 °F 64% 29.82 in 10.0 mi NW 10.4 mph - N/A   Scattered Clouds
11:58 AM 71.1 °F 59.0 °F 66% 29.82 in 10.0 mi West 9.2 mph - N/A   Scattered Clouds
12:58 PM 73.0 °F 55.9 °F 55% 29.79 in 10.0 mi West 10.4 mph - N/A   Clear
1:48 PM 62.6 °F 57.2 °F 82% 29.79 in 10.0 mi NNE 16.1 mph - N/A   Partly Cloudy
1:56 PM 60.8 °F 55.4 °F 82% 29.80 in 4.0 mi NNE 13.8 mph - N/A   Mostly Cloudy
1:58 PM 60.8 °F 55.4 °F 82% 29.80 in 0.2 mi North 13.8 mph - N/A Fog Fog
2:01 PM 60.1 °F 55.9 °F 86% 29.80 in 0.2 mi North 13.8 mph - N/A Fog Fog
2:58 PM 57.9 °F 55.9 °F 93% 29.81 in 0.2 mi NNE 9.2 mph - N/A Fog Fog
3:58 PM 57.0 °F 55.9 °F 96% 29.83 in 0.1 mi NE 10.4 mph - N/A   Overcast
4:02 PM 57.2 °F 55.4 °F 94% 29.83 in 0.8 mi NNE 9.2 mph - N/A   Overcast
4:06 PM 57.2 °F 55.4 °F 94% 29.83 in 1.0 mi NNE 10.4 mph - N/A   Overcast
4:16 PM 57.2 °F 55.4 °F 94% 29.83 in 0.8 mi NNE 9.2 mph - N/A   Overcast
4:41 PM 55.4 °F 55.4 °F 100% 29.84 in 0.5 mi NNE 10.4 mph - N/A   Overcast
4:58 PM 55.9 °F 55.0 °F 97% 29.86 in 0.5 mi NE 9.2 mph - N/A Fog Fog
5:02 PM 55.4 °F 55.4 °F 100% 29.85 in 2.5 mi NNE 9.2 mph - N/A   Overcast
5:06 PM 55.4 °F 55.4 °F 100% 29.85 in 1.0 mi NE 8.1 mph - N/A   Overcast
5:34 PM 55.4 °F 55.4 °F 100% 29.86 in 2.0 mi NE 5.8 mph - N/A   Mostly Cloudy
5:44 PM 55.4 °F 53.6 °F 94% 29.86 in 2.0 mi NNE 5.8 mph - N/A   Scattered Clouds
5:58 PM 55.9 °F 54.0 °F 93% 29.87 in 2.0 mi NNE 5.8 mph - N/A   Partly Cloudy
6:02 PM 55.4 °F 53.6 °F 94% 29.87 in 9.0 mi NNE 5.8 mph - N/A   Clear
6:14 PM 55.4 °F 53.6 °F 94% 29.88 in 2.0 mi NNE 5.8 mph - N/A   Partly Cloudy
6:29 PM 55.4 °F 53.6 °F 94% 29.89 in 6.0 mi North 6.9 mph - N/A   Scattered Clouds
6:58 PM 54.0 °F 53.1 °F 97% 29.90 in 6.0 mi NNE 8.1 mph - N/A   Scattered Clouds
7:58 PM 54.0 °F 52.0 °F 93% 29.92 in 10.0 mi NNE 6.9 mph - N/A   Clear
8:18 PM 53.6 °F 53.6 °F 100% 29.93 in 10.0 mi NNE 11.5 mph - N/A   Partly Cloudy
8:27 PM 53.6 °F 53.6 °F 100% 29.93 in 10.0 mi NNE 10.4 mph - N/A   Mostly Cloudy
8:58 PM 54.0 °F 52.0 °F 93% 29.95 in 10.0 mi NNE 12.7 mph - N/A   Overcast
9:58 PM 53.1 °F 51.1 °F 93% 29.96 in 10.0 mi NE 12.7 mph - N/A   Overcast
10:58 PM 53.1 °F 51.1 °F 93% 29.97 in 10.0 mi NNE 8.1 mph - N/A   Mostly Cloudy
11:28 PM 53.6 °F 50.0 °F 88% 29.97 in 10.0 mi NNE 9.2 mph - N/A   Scattered Clouds
11:36 PM 51.8 °F 50.0 °F 94% 29.97 in 10.0 mi North 9.2 mph - N/A   Mostly Cloudy
11:58 PM 53.1 °F 50.0 °F 89% 29.98 in 10.0 mi North 11.5 mph - N/A   Overcast